RH
79 80 81 83 85 86 86 88 88 88 91 91 90 90 90 90 81 37 21 23 31 68 66 31 36 35 36 40 32 33 58 84 65 61 53 49 53 45 43 43 44 42 58 59 58
75 75 76 80 84 84 84 86 87 87 88 89 90 90 90 89 35 22 30 62 68 70 26 25 24 20 25 28 30 38 61 67 54 53 55 47 51 47 50 55 62 62 56 53 54
73 72 73 74 81 82 83 84 85 86 86 88 89 90 90 86 25 16 61 63 64 57 20 18 18 19 24 32 39 38 53 54 42 48 43 47 50 48 50 61 57 66 59 55 53
74 73 72 72 78 81 82 82 83 84 84 86 88 89 89 49 25 17 66 69 65 26 19 20 20 26 29 35 43 39 40 37 50 48 48 52 46 47 49 48 51 52 50 51 53
78 77 73 72 75 79 80 80 81 83 84 86 88 88 51 31 20 20 70 69 30 21 17 19 23 27 30 39 31 39 42 39 43 43 47 42 45 43 44 46 50 48 47 51 51
79 79 79 78 78 78 79 79 80 81 83 85 88 88 41 20 12 22 29 37 24 21 18 18 20 21 26 37 36 35 40 39 41 47 43 43 44 42 45 50 50 48 50 50 50
78 79 80 79 79 79 78 80 81 80 82 85 88 53 36 20 18 24 27 29 24 19 17 18 19 20 26 39 34 38 46 46 44 44 47 42 53 51 41 47 50 49 49 51 51
74 80 80 80 79 78 80 80 80 80 81 87 82 44 22 16 19 19 29 25 19 19 18 18 21 28 33 37 34 42 48 58 45 41 42 45 61 46 38 47 51 49 48 48 53
76 80 80 80 79 80 80 80 80 81 86 79 46 40 23 21 18 14 13 17 18 22 25 19 26 33 35 45 53 50 58 56 52 42 44 48 53 46 38 43 49 48 48 48 52
76 78 81 79 78 79 80 80 76 81 65 43 23 26 17 15 17 19 20 20 25 27 27 29 35 38 40 48 60 57 52 40 51 46 50 55 49 54 41 40 46 48 48 49 47
75 78 80 79 79 78 86 59 50 42 42 25 27 20 16 12 14 20 22 26 28 29 37 37 41 44 36 37 38 38 41 44 37 42 46 51 52 49 41 44 49 50 49 50 51
79 81 80 79 76 83 90 51 52 50 60 39 33 30 21 14 20 18 23 30 39 41 40 40 45 34 31 28 33 34 34 23 36 41 42 45 47 51 42 43 44 46 48 50 53
82 82 82 81 82 88 87 81 66 59 73 48 34 19 17 13 17 19 23 31 40 43 42 44 34 29 27 30 23 24 23 26 29 42 39 34 36 30 36 40 40 42 42 45 49
82 82 83 83 74 75 86 65 78 73 82 47 34 18 13 14 19 12 23 27 38 39 39 39 28 28 33 30 25 29 24 21 22 32 35 27 34 28 23 39 39 44 48 48 50
81 81 83 82 81 78 67 63 78 75 60 28 23 13 12 13 17 16 21 28 34 32 28 33 28 27 28 31 26 26 23 22 24 29 31 27 28 25 28 47 43 42 44 48 46
81 81 81 72 81 63 63 75 74 74 73 43 13 12 15 14 14 19 20 24 28 33 33 31 24 23 28 27 26 26 28 31 32 35 38 29 29 28 31 30 31 34 34 40 38
82 81 81 68 54 62 77 89 80 83 41 35 18 15 15 16 15 20 24 29 37 42 44 33 30 25 25 30 26 28 42 64 47 59 48 29 28 29 35 33 33 35 36 40 46
82 82 81 73 79 79 94 91 94 57 62 36 24 17 18 16 17 21 26 30 33 36 46 41 43 28 23 32 30 33 39 68 50 61 50 31 30 39 32 33 33 35 42 46 50
83 82 83 76 78 90 95 100 94 74 50 39 29 20 21 19 18 20 28 32 30 31 38 52 41 26 25 25 25 35 42 40 49 59 53 42 31 32 34 32 34 39 47 56 53
99 89 86 85 89 94 96 95 88 64 45 40 34 30 24 20 23 25 26 26 27 30 30 33 41 26 23 22 29 32 34 50 75 62 61 47 42 45 39 36 38 45 57 59 58
96 87 80 87 88 96 98 88 72 49 47 54 35 34 36 37 31 28 25 19 23 26 31 31 46 34 28 31 32 36 46 55 58 65 68 60 47 28 34 36 45 50 54 59 58
92 78 76 87 91 98 97 78 62 40 40 49 54 36 39 41 43 34 27 24 24 25 32 36 51 46 32 31 29 33 37 49 78 58 72 66 51 37 35 48 51 52 55 61 63
97 86 88 83 96 90 69 58 56 46 41 48 56 51 54 52 53 43 37 26 19 27 33 33 52 73 42 39 36 36 38 55 64 66 63 76 59 41 45 51 52 58 58 63 64
97 94 82 96 91 87 82 75 63 44 45 40 43 45 57 63 50 44 35 36 32 33 58 46 50 53 63 50 46 49 37 66 60 82 64 62 50 47 54 55 56 60 66 69 68
97 89 82 96 92 75 82 73 70 66 47 46 45 49 54 67 59 51 44 37 32 45 38 40 46 52 49 42 37 33 34 54 56 52 60 49 48 40 48 54 56 60 64 65 65
96 91 84 81 72 73 75 77 65 55 55 58 60 46 53 69 60 65 58 58 54 36 42 42 47 42 43 38 40 39 35 49 48 49 46 42 39 33 41 53 54 57 61 64 63
88 88 86 82 78 71 74 59 59 62 54 45 55 63 69 68 66 50 50 50 52 57 45 44 54 65 56 45 47 55 40 39 45 44 38 46 37 49 56 50 52 56 60 63 60
Wind_Speed
19 18 19 19 18 17 18 19 20 19 17 18 17 16 12 12 11 2 4 9 4 11 5 1 1 4 4 4 4 4 5 2 3 8 4 7 5 2 3 10 2 3 7 14 15
20 21 21 20 20 19 18 18 19 20 18 18 17 16 13 11 1 5 8 10 10 9 3 2 3 4 3 6 3 4 4 9 5 5 9 11 7 6 6 5 6 10 16 19 16
21 22 22 21 20 21 20 18 18 19 20 17 18 15 13 8 2 7 11 13 10 8 1 2 1 2 4 4 3 1 5 5 4 6 14 11 7 3 10 1 6 21 20 15 17
20 21 22 23 22 22 22 21 18 18 20 17 16 16 14 2 2 3 7 8 8 3 2 1 3 2 4 4 2 5 4 6 3 5 7 10 8 7 6 8 17 22 20 16 17
19 20 21 23 24 23 23 23 21 18 19 17 14 13 6 2 8 5 11 6 6 4 4 2 1 1 3 4 4 7 2 4 8 8 7 9 6 6 6 14 19 18 17 16 16
19 20 21 22 23 24 24 24 22 19 17 17 12 10 2 3 5 10 9 5 4 5 4 6 3 4 5 3 1 4 6 7 6 3 6 8 5 6 2 20 19 19 16 14 15
19 20 22 23 24 24 26 26 25 20 17 15 9 3 1 13 2 9 10 6 5 6 6 6 4 5 3 1 2 7 6 3 2 4 4 6 1 6 15 20 21 17 15 12 10
22 22 22 23 24 25 26 26 27 22 17 10 2 2 7 6 2 7 6 7 7 6 3 5 5 6 4 2 6 2 5 4 4 7 4 6 8 5 15 18 17 16 15 14 8
21 22 23 24 24 25 27 29 28 21 7 5 0 2 9 10 3 8 9 8 8 4 4 1 2 2 4 5 4 4 4 3 1 7 7 7 7 8 15 18 17 16 15 14 8
22 23 24 26 26 25 29 29 20 10 5 4 2 4 6 4 3 3 3 5 5 5 4 3 5 2 3 4 5 5 4 4 6 9 4 6 10 3 16 17 18 15 13 13 13
22 23 24 26 27 26 15 8 9 7 7 4 3 5 4 7 5 2 2 3 3 5 3 1 4 5 8 7 9 7 4 6 7 8 6 12 8 9 16 11 12 14 15 13 13
23 24 26 27 28 24 1 6 3 5 9 5 12 8 8 4 3 5 2 4 3 4 2 5 6 10 5 7 10 9 6 4 3 4 6 7 13 8 13 18 20 19 15 14 9
22 24 27 29 29 4 4 7 8 4 2 10 7 7 5 6 4 5 6 3 3 4 5 6 7 4 7 2 3 3 4 1 4 3 4 4 5 5 10 13 13 12 14 12 15
21 23 25 34 7 6 3 13 9 2 4 8 5 7 7 5 5 6 6 7 3 7 4 5 7 6 1 1 3 2 2 3 4 4 4 5 4 4 5 19 14 12 10 13 11
20 21 21 20 2 4 6 12 8 4 5 6 4 2 7 11 3 5 5 3 9 5 6 8 1 1 1 1 2 4 3 3 3 2 1 2 3 6 6 6 12 11 13 8 10
20 21 20 4 3 6 7 9 4 8 8 5 4 5 6 5 3 3 4 4 5 3 0 4 2 3 4 1 3 2 2 7 5 2 2 5 6 5 2 4 5 6 6 2 10
21 24 15 1 4 5 6 4 6 6 5 4 4 5 6 6 4 5 4 4 6 5 4 3 3 2 2 3 3 5 6 4 4 4 6 5 4 3 3 5 9 9 6 6 4
22 23 5 5 5 5 3 5 2 5 7 5 3 5 8 7 6 6 7 5 4 5 3 6 6 6 3 7 7 5 8 7 6 4 4 4 3 5 5 7 8 10 9 11 12
18 4 4 5 5 2 5 3 8 6 5 6 7 4 5 5 5 7 7 8 9 10 7 6 6 1 2 4 8 3 3 6 5 3 3 3 5 8 2 6 9 11 12 9 12
4 4 4 3 4 2 4 5 6 6 9 6 2 1 5 6 7 7 9 8 8 11 7 6 1 1 1 4 3 5 4 4 4 3 4 5 6 7 8 8 7 8 9 8 7
1 2 4 1 4 5 5 6 4 14 8 5 4 5 2 3 3 6 10 10 9 9 11 7 6 4 3 3 8 2 1 5 5 5 6 2 6 6 15 13 11 8 6 8 9
2 1 4 3 3 1 3 5 3 10 5 5 3 4 3 5 3 3 11 9 7 8 11 9 7 5 8 2 6 6 7 6 7 4 3 4 7 4 10 9 12 9 8 7 8
2 3 4 5 3 2 5 4 3 3 4 5 4 3 4 3 4 3 4 4 1 5 10 8 1 4 6 8 6 3 4 5 4 4 6 6 6 6 9 9 7 13 9 8 8
1 2 5 3 0 1 2 4 5 6 9 6 9 6 3 4 4 6 7 2 6 3 3 8 4 8 10 8 6 4 5 4 6 4 4 7 5 3 5 12 10 10 8 8 9
2 3 3 2 2 3 2 3 5 5 4 4 4 7 3 4 6 2 3 5 4 3 3 5 6 5 5 5 5 6 5 8 7 6 8 5 9 11 15 15 12 12 11 12 12
2 3 4 2 3 3 1 3 4 6 5 7 4 4 5 5 4 1 3 5 3 7 2 3 3 5 3 4 7 5 8 10 6 3 4 5 7 6 10 11 12 14 14 14 14
3 3 4 4 4 2 1 6 7 7 7 10 7 5 3 3 3 4 4 3 5 1 2 3 5 4 4 1 1 6 7 9 5 5 7 7 11 10 13 18 18 17 16 15 15
Wind_Direction
3 357 354 347 344 342 336 332 330 332 336 328 328 322 326 324 306 141 235 216 181 161 138 270 4 349 1 267 218 160 78 243 227 149 189 189 166 27 60 123 61 169 144 142 143
359 354 351 347 339 337 335 330 327 326 334 330 326 318 321 332 294 242 230 158 150 161 185 167 298 24 312 263 252 124 121 214 214 182 165 178 115 149 92 95 39 76 109 130 134
357 353 348 344 338 334 331 329 325 324 327 332 323 317 317 324 349 247 167 158 166 181 148 126 262 233 241 219 338 27 165 184 286 198 158 156 134 124 122 38 176 145 142 143 147
354 349 347 343 338 332 328 325 324 322 321 329 324 316 312 260 204 266 139 134 137 170 131 8 61 31 290 311 272 111 343 148 149 115 119 140 160 130 165 195 147 149 153 153 165
349 345 344 342 337 332 327 322 321 320 317 321 324 319 309 37 252 177 138 124 121 170 189 186 280 142 283 321 36 86 150 48 135 154 140 132 179 157 219 140 142 147 158 164 176
348 343 342 339 336 332 325 320 315 315 313 315 318 318 279 240 255 135 129 133 205 196 213 155 182 193 266 270 67 127 118 122 121 176 142 146 202 101 86 132 147 157 169 177 187
346 342 339 337 334 331 325 319 312 311 308 307 303 280 251 235 116 141 150 207 201 190 236 175 193 152 297 317 225 147 100 94 145 164 122 119 159 152 161 156 158 169 174 180 193
344 340 337 334 332 328 322 315 306 304 303 292 262 249 245 254 180 175 183 277 240 226 240 252 242 193 182 203 19 93 75 122 246 156 129 101 245 171 166 159 170 172 177 185 166
343 338 335 333 331 327 320 311 300 294 240 153 231 192 266 312 212 256 165 224 200 173 228 147 119 138 30 91 23 7 238 193 158 201 148 136 262 190 180 171 175 178 182 185 160
341 337 334 331 329 328 320 303 289 297 150 180 260 9 285 263 257 281 241 209 122 144 32 52 46 67 32 81 226 219 211 224 186 219 165 168 234 187 186 177 177 179 183 188 172
339 335 333 330 328 328 337 356 15 351 27 197 238 265 320 296 289 277 357 51 79 81 168 323 86 220 227 203 223 205 246 252 253 198 138 203 209 207 200 181 179 183 187 191 179
337 336 333 331 325 321 275 67 38 217 310 256 245 254 252 280 304 300 67 119 108 183 139 21 226 241 228 248 236 241 220 264 295 163 151 180 237 197 197 204 191 184 188 188 170
336 336 335 331 321 359 329 40 327 19 247 288 219 207 207 157 235 255 134 156 154 193 225 175 244 294 229 64 62 17 97 316 218 132 269 108 270 189 228 227 206 193 188 189 176
335 336 338 331 44 340 49 328 335 359 24 273 217 242 166 141 250 220 197 146 210 202 227 239 281 224 175 162 126 168 276 92 63 95 214 153 268 242 256 223 190 171 187 195 180
332 333 338 336 274 345 318 316 312 65 26 258 196 177 144 158 191 238 174 78 183 216 113 239 310 67 163 211 102 193 211 101 137 135 145 263 75 267 10 47 169 174 204 216 191
329 327 333 331 324 251 308 312 45 48 257 306 165 168 116 187 235 33 120 80 163 163 102 213 243 171 174 48 118 185 43 37 38 86 27 253 139 302 294 181 104 84 92 105 184
325 318 320 261 246 326 319 42 38 138 290 259 205 166 161 178 231 159 155 146 153 128 259 350 215 213 166 139 10 81 55 357 345 4 221 297 88 256 29 70 116 117 80 31 23
325 316 278 219 253 357 19 66 110 251 251 300 307 155 176 171 248 173 147 174 258 114 138 177 300 178 198 179 179 181 154 156 205 203 260 330 180 219 161 121 102 82 75 50 38
329 328 292 266 219 164 79 122 201 233 264 347 324 196 215 228 179 166 184 193 202 172 165 165 254 7 170 158 134 207 163 187 115 351 61 247 52 17 325 100 95 89 75 55 54
332 332 280 251 154 70 86 213 229 208 342 337 293 12 204 215 172 167 186 205 205 189 156 215 134 95 129 92 32 143 163 76 2 135 217 274 182 183 203 158 126 97 91 78 54
110 353 261 97 62 53 164 232 280 282 323 324 2 323 315 360 250 205 209 236 199 204 170 172 115 270 97 189 180 60 61 55 116 145 167 235 265 199 183 162 146 124 112 98 88
335 56 276 49 72 153 188 188 302 289 321 280 275 252 270 0 305 271 204 195 192 157 161 196 137 168 206 250 191 162 177 144 131 236 231 149 273 26 165 134 127 121 109 94 84
13 266 326 84 147 275 300 293 265 248 270 275 297 24 40 330 334 301 349 342 303 124 158 173 182 78 0 350 352 176 189 142 120 80 198 137 256 43 105 112 126 129 121 104 96
27 13 327 42 151 160 292 258 249 291 271 226 268 302 358 343 226 281 343 347 347 83 145 104 129 149 180 203 162 181 198 163 135 127 177 224 137 142 155 148 142 137 131 116 99
49 265 208 294 2 343 311 293 319 326 283 244 270 220 200 271 312 290 306 337 1 339 49 101 152 152 189 189 177 197 181 180 182 193 161 218 184 182 190 174 155 142 132 124 116
107 56 350 321 320 327 314 274 268 283 251 309 293 282 292 207 212 307 321 14 11 338 75 20 200 150 200 184 215 240 222 191 211 165 260 183 252 183 175 130 147 152 146 138 129
302 337 97 310 343 36 326 354 326 343 271 247 284 245 275 242 297 224 226 234 232 224 295 137 133 95 236 246 195 275 212 207 194 192 169 177 219 147 149 159 163 158 155 148 141